Regional Weather Roundup
Issued by NWS

Home | Current Version | Previous Version | Text Only | Print | Product List | Glossary Off
Versions: 1 2 3 4 5 6 7 8 9 10 11 12 13 14 15 16 17 18 19 20 21 22 23 24 25 26 27 28 29 30 31 32 33 34 35 36 37 38 39 40 41 42 43 44 45 46 47 48 49 50

000
ASUS43 KOAX 312310
RWRNE

WEATHER ROUNDUP FOR NEBRASKA
NATIONAL WEATHER SERVICE OMAHA NE
500 PM CST SAT JAN 31 2015

NOTES: SATELLITE DATA IS BEING USED TO AUGMENT CLOUD COVER ABOVE
       12000 FEET.
       "FAIR" INDICATES FEW OR NO CLOUDS BELOW 12,000 FEET WITH NO
       SIGNIFICANT WEATHER AND/OR OBSTRUCTIONS TO VISIBILITY.

  * THESE STATIONS DO NOT REPORT WEATHER SUCH AS RAIN...SNOW OR FOG.

NEZ001>004-019>022-054>056-010000-
NEBRASKA PANHANDLE

CITY           SKY/WX    TMP DP  RH WIND       PRES   REMARKS
SCOTTSBLUFF    CLOUDY    33  30  88 E8        29.86S WCI  26
ALLIANCE       SNOW      29  27  92 N12       29.86R VSB 1/2 WCI  19
CHADRON        CLOUDY    27  24  89 NE13      29.92F FOG     WCI  16
KIMBALL        FLURRIES  32  31  97 N9        29.79S WCI  24
SIDNEY         LGT SNOW  31  29  92 N9        29.82S VSB 1   WCI  23
$$

NEZ057>060-069>072-079>082-010000-
SOUTHWEST NEBRASKA

CITY           SKY/WX    TMP DP  RH WIND       PRES   REMARKS
NORTH PLATTE   LGT SNOW  33  31  92 NE6       29.84S VSB 3/4 WCI  28
IMPERIAL       LGT SNOW  33  31  92 N7        29.82R FOG     WCI  27
LEXINGTON      LGT SNOW  33  32  96 E5        29.84S WCI  28
MCCOOK         LGT SNOW  34  32  92 N7        29.82S FOG     WCI  28
OGALLALA       LGT SNOW  33  32  97 NE3       29.83S
$$

NEZ005>010-023>029-035>040-094-010000-
NORTH CENTRAL NEBRASKA

CITY           SKY/WX    TMP DP  RH WIND       PRES   REMARKS
VALENTINE      LGT SNOW  23  21  92 NE15      29.97R VSB 1   WCI  10
AINSWORTH      SNOW      24  23  96 NE13      29.95R VSB 1/4 WCI  12
BROKEN BOW     SNOW      34  32  92 NE7       29.85S VSB 1/2 WCI  28
O`NEILL        LGT SNOW  28  28  96 NE13      29.94S WCI  18
ORD            LGT SNOW  32  31  96 E5        29.88S VSB 3/4 WCI  27
THEDFORD       LGT SNOW  27  26  95 NE9       29.90S VSB 3/4 WCI  18
$$

NEZ041-046>049-061>064-073>077-083>087-010000-
SOUTH CENTRAL NEBRASKA

CITY           SKY/WX    TMP DP  RH WIND       PRES   REMARKS
GRAND ISLAND   SNOW      32  31  96 E5        29.89F VSB 1/2 WCI  27
AURORA         LGT SNOW  33  33 100 SE6       29.89S VSB 3/4 WCI  27
HASTINGS       LGT SNOW  32  30  92 SE6       29.86F VSB 1   WCI  26
HEBRON         LGT SNOW  33  31  94 SE6       29.90F WCI  27
HOLDREGE       LGT SNOW  32  32  99 E3        29.83F
KEARNEY *      CLOUDY    32  30  93 E6        29.86F WCI  26
YORK           LGT SNOW  32  32 100 SE5       29.91S VSB 3/4 WCI  27
$$

NEZ011>018-030>034-042>045-010000-
NORTHEAST NEBRASKA

CITY           SKY/WX    TMP DP  RH WIND       PRES   REMARKS
NORFOLK        LGT SNOW  34  33  96 E3        29.93S FOG
ALBION         LGT SNOW  33  31  92 E3        29.91S
BLAIR          LGT SNOW  34  32  93 SE6       29.95F VSB 1   WCI  29
COLUMBUS *     CLOUDY    32  28  86 E6        29.94F WCI  26
FREMONT        LGT SNOW  34  33  98 E5        29.96F VSB 1   WCI  30
TEKAMAH        LGT SNOW  33  32  96 E5        29.98F VSB 1   WCI  29
WAYNE          LGT SNOW  34  33  96 E6        29.96F WCI  28
$$

NEZ050>053-065>068-078-088>093-010000-
SOUTHEAST NEBRASKA

CITY           SKY/WX    TMP DP  RH WIND       PRES   REMARKS
LINCOLN        LGT SNOW  33  32  96 SE6       29.95F VSB 3/4 WCI  28
OMAHA EPPLEY   LGT SNOW  33  32  96 SE8       29.98F VSB 3/4 WCI  26
BEATRICE       LGT SNOW  32  32  99 SE9       29.92F VSB 1   WCI  25
FALLS CITY     LGT SNOW  33  33 100 SE8       29.98F FOG     WCI  26
NEBRASKA CITY  LGT SNOW  33  33 100 S10       29.96F VSB 1   WCI  24
PLATTSMOUTH    LGT SNOW  32  31  96 SE8       29.96F WCI  25
$$

NEZ044-045-051>053-067-010000-
OMAHA AREA

CITY           SKY/WX    TMP DP  RH WIND       PRES   REMARKS
OMAHA EPPLEY   LGT SNOW  33  32  96 SE8       29.98F VSB 3/4 WCI  26
BLAIR          LGT SNOW  34  32  93 SE6       29.95F VSB 1   WCI  29
FREMONT        LGT SNOW  34  33  98 E5        29.96F VSB 1   WCI  30
MILLARD        LGT SNOW  33  32  95 SE6       29.97F VSB 1   WCI  28
OFFUTT AFB     LGT SNOW  32  32 100 E8        29.96F VSB 1   WCI  25
PLATTSMOUTH    LGT SNOW  32  31  96 SE8       29.96F WCI  25
WAHOO          LGT SNOW  33  32  95 E5        29.95F VSB 1   WCI  28
$$



USA.gov is the U.S. government's official web portal to all federal, state and local government web resources and services.